Regional Weather Roundup
Issued by NWS

Home | Current Version | Previous Version | Text Only | Print | Product List | Glossary On
Versions: 1 2 3 4 5 6 7 8 9 10 11 12 13 14 15 16 17 18 19 20 21 22 23 24 25 26 27 28 29 30 31 32 33 34 35 36 37 38 39 40 41 42 43 44 45 46 47 48 49 50
000
ASUS43 KTOP 271208
RWRKS

WEATHER ROUNDUP FOR KANSAS
NATIONAL WEATHER SERVICE GOODLAND KS
700 AM CDT THU APR 27 2017

NOTE:  "FAIR" INDICATES FEW OR NO CLOUDS BELOW 12,000 FEET WITH NO
SIGNIFICANT WEATHER AND/OR OBSTRUCTIONS TO VISIBILITY.

KSZ001>006-013>018-027>032-041>047-271300-
NORTHWEST KANSAS

CITY           SKY/WX    TMP DP  RH WIND       PRES   REMARKS
GOODLAND       CLEAR     37  29  72 S12       29.61S WCI  29
6HR MIN TEMP:  31; 6HR MAX TEMP:  45;

HILL CITY      CLEAR     28  26  92 CALM      29.70S
6HR MIN TEMP:  27; 6HR MAX TEMP:  35;

RUSSELL        CLEAR     31  28  89 E5        29.69F
6HR MIN TEMP:  29; 6HR MAX TEMP:  38;

$$

KSZ061>065-074>080-084>089-271300-
SOUTHWEST KANSAS

CITY           SKY/WX    TMP DP  RH WIND       PRES   REMARKS
DODGE CITY     CLOUDY    41  35  79 S8        29.68R
6HR MIN TEMP:  36; 6HR MAX TEMP:  42;

GARDEN CITY    CLOUDY    41  32  70 SE7       29.65S
6HR MIN TEMP:  37; 6HR MAX TEMP:  42;

GREAT BEND     CLEAR     32  30  92 CALM      29.71R
LIBERAL        CLEAR     38  35  89 SE7       29.64F
PRATT          CLEAR     32  29  89 S3        29.73R
6HR MIN TEMP:  32; 6HR MAX TEMP:  40;

$$

KSZ066>073-081>083-090>101-271300-
SOUTHEAST KANSAS

CITY           SKY/WX    TMP DP  RH WIND       PRES   REMARKS
CHANUTE        CLEAR     36  34  92 CALM      29.75R
6HR MIN TEMP:  35; 6HR MAX TEMP:  42;

COFFEYVILLE    CLEAR     38  38 100 CALM      29.77R
6HR MIN TEMP:  37; 6HR MAX TEMP:  47;

HUTCHINSON     CLEAR     36  31  82 NE5       29.70F
6HR MIN TEMP:  30; 6HR MAX TEMP:  37;

MEDICINE LODGE   N/A     32  30  92 NE5       29.72R
NEWTON         CLEAR     36  31  82 NE7       29.72F
PARSONS        CLEAR     36  34  92 CALM      29.77R
6HR MIN TEMP:  35; 6HR MAX TEMP:  43;

WICHITA INTL   PTCLDY    36  33  89 CALM      29.72R
6HR MIN TEMP:  34; 6HR MAX TEMP:  43;

WICHITA JABRA  CLEAR     35  33  92 NE8       29.71F
6HR MIN TEMP:  34; 6HR MAX TEMP:  41;

WICHITA MCCONL CLEAR     38  33  80 E3        29.72S
WINFIELD       CLEAR     34  33  96 S6        29.76R
6HR MIN TEMP:  33; 6HR MAX TEMP:  41;

$$

KSZ007>012-019>026-033>040-048>060-102>105-271300-
NORTHEAST KANSAS

CITY           SKY/WX    TMP DP  RH WIND       PRES   REMARKS
CONCORDIA      CLEAR     30  29  96 W7        29.72R
6HR MIN TEMP:  29; 6HR MAX TEMP:  35;

EMPORIA        CLEAR     34  33  96 W3        29.74R
6HR MIN TEMP:  33; 6HR MAX TEMP:  41;

LAWRENCE       CLEAR     36  35  96 CALM      29.72R
6HR MIN TEMP:  36; 6HR MAX TEMP:  45;

MANHATTAN      CLEAR     32  29  88 CALM      29.73R
6HR MIN TEMP:  30; 6HR MAX TEMP:  41;

MARYSVILLE     CLEAR     34  30  86 W5        29.72R
OLATHE IND     CLEAR     38  33  82 W6        29.71R
6HR MIN TEMP:  38; 6HR MAX TEMP:  44;

OLATHE EXE     CLEAR     40  34  79 W3        29.70S
6HR MIN TEMP:  40; 6HR MAX TEMP:  43;

SALINA         CLEAR     32  29  88 CALM      29.74R
6HR MIN TEMP:  30; 6HR MAX TEMP:  40;

TOPEKA BILLARD CLEAR     37  35  92 W3        29.72R
6HR MIN TEMP:  34; 6HR MAX TEMP:  46;

TOPEKA FORBES  CLEAR     35  33  92 CALM      29.71R
6HR MIN TEMP:  34; 6HR MAX TEMP:  47;

$$



USA.gov is the U.S. government's official web portal to all federal, state and local government web resources and services.